Time,TemperatureF,DewpointF,PressureIn,WindDirection,WindDirectionDegrees,WindSpeedMPH,WindSpeedGustMPH,Humidity,HourlyPrecipIn,Conditions,Clouds,dailyrainin,SolarRadiationWatts/m^2,SoftwareType,DateUTC
2013-06-05 00:03:00,60.0,54.0,-100.00,SSW,194,2.0,5.0,80,0.00,,,0.00,0.000000,,2013-06-05 04:03:00,
2013-06-05 00:33:00,58.0,54.0,-100.00,SSW,213,2.0,4.0,87,0.00,,,0.00,0.000000,,2013-06-05 04:33:00,
2013-06-05 00:42:00,58.0,54.0,-100.00,SSW,213,2.0,4.0,87,0.00,,,0.00,0.000000,,2013-06-05 04:42:00,
2013-06-05 00:53:00,58.0,54.0,-100.00,SSW,213,2.0,4.0,87,0.00,,,0.00,0.000000,,2013-06-05 04:53:00,
2013-06-05 01:02:00,58.0,54.0,-100.00,SSW,213,2.0,4.0,87,0.00,,,0.00,0.000000,,2013-06-05 05:02:00,
2013-06-05 01:12:00,58.0,54.0,-100.00,SSW,213,2.0,4.0,87,0.00,,,0.00,0.000000,,2013-06-05 05:12:00,
2013-06-05 01:32:00,56.0,55.0,-100.00,SSE,148,2.0,4.0,95,0.00,,,0.00,0.000000,,2013-06-05 05:32:00,
2013-06-05 01:42:00,56.0,55.0,-100.00,SSE,148,2.0,4.0,95,0.00,,,0.00,0.000000,,2013-06-05 05:42:00,
2013-06-05 01:53:00,56.0,55.0,-100.00,SSE,148,2.0,4.0,95,0.00,,,0.00,0.000000,,2013-06-05 05:53:00,
2013-06-05 02:02:00,56.0,55.0,-100.00,SSE,148,2.0,4.0,95,0.00,,,0.00,0.000000,,2013-06-05 06:02:00,
2013-06-05 02:12:00,56.0,55.0,-100.00,SSE,148,2.0,4.0,95,0.00,,,0.00,0.000000,,2013-06-05 06:12:00,
2013-06-05 02:32:00,54.0,54.0,-100.00,NW,315,1.0,4.0,100,0.00,,,0.00,0.000000,,2013-06-05 06:32:00,
2013-06-05 02:42:00,54.0,54.0,-100.00,NW,315,1.0,4.0,100,0.00,,,0.00,0.000000,,2013-06-05 06:42:00,
2013-06-05 02:52:00,54.0,54.0,-100.00,NW,315,1.0,4.0,100,0.00,,,0.00,0.000000,,2013-06-05 06:52:00,
2013-06-05 03:02:00,54.0,54.0,-100.00,NW,315,1.0,4.0,100,0.00,,,0.00,0.000000,,2013-06-05 07:02:00,
2013-06-05 03:12:00,54.0,54.0,-100.00,NW,315,1.0,4.0,100,0.00,,,0.00,0.000000,,2013-06-05 07:12:00,
2013-06-05 03:32:00,53.0,53.0,-100.00,ESE,115,2.0,3.0,100,0.00,,,0.00,0.000000,,2013-06-05 07:32:00,
2013-06-05 03:42:00,53.0,53.0,-100.00,ESE,115,2.0,3.0,100,0.00,,,0.00,0.000000,,2013-06-05 07:42:00,
2013-06-05 03:52:00,53.0,53.0,-100.00,ESE,115,2.0,3.0,100,0.00,,,0.00,0.000000,,2013-06-05 07:52:00,
2013-06-05 04:02:00,53.0,53.0,-100.00,ESE,115,2.0,3.0,100,0.00,,,0.00,0.000000,,2013-06-05 08:02:00,
2013-06-05 04:12:00,53.0,53.0,-100.00,ESE,115,2.0,3.0,100,0.00,,,0.00,0.000000,,2013-06-05 08:12:00,
2013-06-05 04:32:00,52.0,52.0,-100.00,WSW,257,0.0,3.0,100,0.00,,,0.00,0.000000,,2013-06-05 08:32:00,
2013-06-05 04:42:00,52.0,52.0,-100.00,WSW,257,0.0,3.0,100,0.00,,,0.00,0.000000,,2013-06-05 08:42:00,
2013-06-05 04:52:00,52.0,52.0,-100.00,WSW,257,0.0,3.0,100,0.00,,,0.00,0.000000,,2013-06-05 08:52:00,
2013-06-05 05:02:00,52.0,52.0,-100.00,WSW,257,0.0,3.0,100,0.00,,,0.00,0.000000,,2013-06-05 09:02:00,
2013-06-05 05:12:00,52.0,52.0,-100.00,WSW,257,0.0,3.0,100,0.00,,,0.00,0.000000,,2013-06-05 09:12:00,
2013-06-05 05:33:00,53.0,53.0,-100.00,NNE,27,0.0,1.0,100,0.00,,,0.00,0.000000,,2013-06-05 09:33:00,
2013-06-05 05:43:00,53.0,53.0,-100.00,NNE,27,0.0,1.0,100,0.00,,,0.00,0.000000,,2013-06-05 09:43:00,
2013-06-05 05:53:00,53.0,53.0,-100.00,NNE,27,0.0,1.0,100,0.00,,,0.00,0.000000,,2013-06-05 09:53:00,
2013-06-05 06:03:00,53.0,53.0,-100.00,NNE,27,0.0,1.0,100,0.00,,,0.00,0.000000,,2013-06-05 10:03:00,
2013-06-05 06:12:00,53.0,53.0,-100.00,NNE,27,0.0,1.0,100,0.00,,,0.00,0.000000,,2013-06-05 10:12:00,
2013-06-05 06:33:00,54.0,54.0,-100.00,NNE,29,1.0,3.0,100,0.00,,,0.00,7.000000,,2013-06-05 10:33:00,
2013-06-05 06:43:00,54.0,54.0,-100.00,NNE,29,1.0,3.0,100,0.00,,,0.00,7.000000,,2013-06-05 10:43:00,
2013-06-05 06:53:00,54.0,54.0,-100.00,NNE,29,1.0,3.0,100,0.00,,,0.00,7.000000,,2013-06-05 10:53:00,
2013-06-05 07:02:00,54.0,54.0,-100.00,NNE,29,1.0,3.0,100,0.00,,,0.00,7.000000,,2013-06-05 11:02:00,
2013-06-05 07:12:00,54.0,54.0,-100.00,NNE,29,1.0,3.0,100,0.00,,,0.00,7.000000,,2013-06-05 11:12:00,
2013-06-05 07:33:00,56.0,56.0,-100.00,NNE,25,3.0,5.0,100,0.00,,,0.00,41.000000,,2013-06-05 11:33:00,
2013-06-05 07:42:00,56.0,56.0,-100.00,NNE,25,3.0,5.0,100,0.00,,,0.00,41.000000,,2013-06-05 11:42:00,
2013-06-05 07:52:00,56.0,56.0,-100.00,NNE,25,3.0,5.0,100,0.00,,,0.00,41.000000,,2013-06-05 11:52:00,
2013-06-05 08:02:00,56.0,56.0,-100.00,NNE,25,3.0,5.0,100,0.00,,,0.00,41.000000,,2013-06-05 12:02:00,
2013-06-05 08:12:00,56.0,56.0,-100.00,NNE,25,3.0,5.0,100,0.00,,,0.00,41.000000,,2013-06-05 12:12:00,
2013-06-05 08:32:00,58.0,55.0,-100.00,NNE,29,4.0,7.0,91,0.00,,,0.00,119.000000,,2013-06-05 12:32:00,
2013-06-05 08:44:00,58.0,55.0,-100.00,NNE,29,4.0,7.0,91,0.00,,,0.00,119.000000,,2013-06-05 12:44:00,
2013-06-05 08:52:00,58.0,55.0,-100.00,NNE,29,4.0,7.0,91,0.00,,,0.00,119.000000,,2013-06-05 12:52:00,
2013-06-05 09:02:00,58.0,55.0,-100.00,NNE,29,4.0,7.0,91,0.00,,,0.00,119.000000,,2013-06-05 13:02:00,
2013-06-05 09:12:00,58.0,55.0,-100.00,NNE,29,4.0,7.0,91,0.00,,,0.00,119.000000,,2013-06-05 13:12:00,
2013-06-05 09:33:00,62.0,55.0,-100.00,NNE,21,5.0,9.0,77,0.00,,,0.00,282.000000,,2013-06-05 13:33:00,
2013-06-05 09:42:00,62.0,55.0,-100.00,NNE,21,5.0,9.0,77,0.00,,,0.00,282.000000,,2013-06-05 13:42:00,
2013-06-05 09:53:00,62.0,55.0,-100.00,NNE,21,5.0,9.0,77,0.00,,,0.00,282.000000,,2013-06-05 13:53:00,
2013-06-05 10:02:00,62.0,55.0,-100.00,NNE,21,5.0,9.0,77,0.00,,,0.00,282.000000,,2013-06-05 14:02:00,
2013-06-05 10:12:00,62.0,55.0,-100.00,NNE,21,5.0,9.0,77,0.00,,,0.00,282.000000,,2013-06-05 14:12:00,
2013-06-05 10:32:00,67.0,54.0,-100.00,NE,50,4.0,7.0,64,0.00,,,0.00,463.000000,,2013-06-05 14:32:00,
2013-06-05 10:42:00,67.0,54.0,-100.00,NE,50,4.0,7.0,64,0.00,,,0.00,463.000000,,2013-06-05 14:42:00,
2013-06-05 10:52:00,67.0,54.0,-100.00,NE,50,4.0,7.0,64,0.00,,,0.00,463.000000,,2013-06-05 14:52:00,
2013-06-05 11:03:00,67.0,54.0,-100.00,NE,50,4.0,7.0,64,0.00,,,0.00,463.000000,,2013-06-05 15:03:00,
2013-06-05 11:12:00,67.0,54.0,-100.00,NE,50,4.0,7.0,64,0.00,,,0.00,463.000000,,2013-06-05 15:12:00,
2013-06-05 11:13:00,71.0,55.0,-100.00,SE,134,5.0,9.0,58,0.00,,,0.00,661.000000,,2013-06-05 15:13:00,
2013-06-05 11:33:00,71.0,55.0,-100.00,SE,134,5.0,9.0,58,0.00,,,0.00,661.000000,,2013-06-05 15:33:00,
2013-06-05 11:43:00,71.0,55.0,-100.00,SE,134,5.0,9.0,58,0.00,,,0.00,661.000000,,2013-06-05 15:43:00,
2013-06-05 11:53:00,71.0,55.0,-100.00,SE,134,5.0,9.0,58,0.00,,,0.00,661.000000,,2013-06-05 15:53:00,
2013-06-05 12:04:00,71.0,55.0,-100.00,SE,134,5.0,9.0,58,0.00,,,0.00,661.000000,,2013-06-05 16:04:00,
2013-06-05 12:13:00,74.0,54.0,-100.00,SE,135,5.0,11.0,50,0.00,,,0.00,637.000000,,2013-06-05 16:13:00,
2013-06-05 12:32:00,74.0,54.0,-100.00,SE,135,5.0,11.0,50,0.00,,,0.00,637.000000,,2013-06-05 16:32:00,
2013-06-05 12:42:00,74.0,54.0,-100.00,SE,135,5.0,11.0,50,0.00,,,0.00,637.000000,,2013-06-05 16:42:00,
2013-06-05 12:54:00,74.0,54.0,-100.00,SE,135,5.0,11.0,50,0.00,,,0.00,637.000000,,2013-06-05 16:54:00,
2013-06-05 13:02:00,74.0,54.0,-100.00,SE,135,5.0,11.0,50,0.00,,,0.00,637.000000,,2013-06-05 17:02:00,
2013-06-05 13:13:00,76.0,54.0,-100.00,SSE,159,6.0,15.0,46,0.00,,,0.00,791.000000,,2013-06-05 17:13:00,
2013-06-05 13:33:00,76.0,54.0,-100.00,SSE,159,6.0,15.0,46,0.00,,,0.00,791.000000,,2013-06-05 17:33:00,
2013-06-05 13:43:00,76.0,54.0,-100.00,SSE,159,6.0,15.0,46,0.00,,,0.00,791.000000,,2013-06-05 17:43:00,
2013-06-05 13:52:00,76.0,54.0,-100.00,SSE,159,6.0,15.0,46,0.00,,,0.00,791.000000,,2013-06-05 17:52:00,
2013-06-05 14:02:00,76.0,54.0,-100.00,SSE,159,6.0,15.0,46,0.00,,,0.00,791.000000,,2013-06-05 18:02:00,
2013-06-05 14:13:00,77.0,53.0,-100.00,SSE,160,8.0,13.0,43,0.00,,,0.00,741.000000,,2013-06-05 18:13:00,
2013-06-05 14:32:00,77.0,53.0,-100.00,SSE,160,8.0,13.0,43,0.00,,,0.00,741.000000,,2013-06-05 18:32:00,
2013-06-05 14:42:00,77.0,53.0,-100.00,SSE,160,8.0,13.0,43,0.00,,,0.00,741.000000,,2013-06-05 18:42:00,
2013-06-05 14:52:00,77.0,53.0,-100.00,SSE,160,8.0,13.0,43,0.00,,,0.00,741.000000,,2013-06-05 18:52:00,
2013-06-05 15:03:00,77.0,53.0,-100.00,SSE,160,8.0,13.0,43,0.00,,,0.00,741.000000,,2013-06-05 19:03:00,
2013-06-05 15:32:00,78.0,56.0,-100.00,SSE,150,8.0,14.0,46,0.00,,,0.00,746.000000,,2013-06-05 19:32:00,
2013-06-05 15:42:00,78.0,56.0,-100.00,SSE,150,8.0,14.0,46,0.00,,,0.00,746.000000,,2013-06-05 19:42:00,
2013-06-05 15:53:00,78.0,56.0,-100.00,SSE,150,8.0,14.0,46,0.00,,,0.00,746.000000,,2013-06-05 19:53:00,
2013-06-05 16:03:00,78.0,56.0,-100.00,SSE,150,8.0,14.0,46,0.00,,,0.00,746.000000,,2013-06-05 20:03:00,
2013-06-05 16:12:00,78.0,56.0,-100.00,SSE,150,8.0,14.0,46,0.00,,,0.00,746.000000,,2013-06-05 20:12:00,
2013-06-05 16:32:00,78.0,55.0,-100.00,SSE,159,9.0,15.0,45,0.00,,,0.00,757.000000,,2013-06-05 20:32:00,
2013-06-05 16:42:00,78.0,55.0,-100.00,SSE,159,9.0,15.0,45,0.00,,,0.00,757.000000,,2013-06-05 20:42:00,
2013-06-05 16:52:00,78.0,55.0,-100.00,SSE,159,9.0,15.0,45,0.00,,,0.00,757.000000,,2013-06-05 20:52:00,
2013-06-05 17:02:00,78.0,55.0,-100.00,SSE,159,9.0,15.0,45,0.00,,,0.00,757.000000,,2013-06-05 21:02:00,
2013-06-05 17:12:00,78.0,55.0,-100.00,SSE,159,9.0,15.0,45,0.00,,,0.00,757.000000,,2013-06-05 21:12:00,
2013-06-05 17:13:00,77.0,54.0,-100.00,SSE,148,6.0,14.0,45,0.00,,,0.00,525.000000,,2013-06-05 21:13:00,
2013-06-05 17:33:00,77.0,54.0,-100.00,SSE,148,6.0,14.0,45,0.00,,,0.00,525.000000,,2013-06-05 21:33:00,
2013-06-05 17:43:00,77.0,54.0,-100.00,SSE,148,6.0,14.0,45,0.00,,,0.00,525.000000,,2013-06-05 21:43:00,
2013-06-05 17:53:00,77.0,54.0,-100.00,SSE,148,6.0,14.0,45,0.00,,,0.00,525.000000,,2013-06-05 21:53:00,
2013-06-05 18:03:00,77.0,54.0,-100.00,SSE,148,6.0,14.0,45,0.00,,,0.00,525.000000,,2013-06-05 22:03:00,
2013-06-05 18:33:00,78.0,57.0,-100.00,SSE,158,8.0,12.0,49,0.00,,,0.00,341.000000,,2013-06-05 22:33:00,
2013-06-05 18:43:00,78.0,57.0,-100.00,SSE,158,8.0,12.0,49,0.00,,,0.00,341.000000,,2013-06-05 22:43:00,
2013-06-05 18:53:00,78.0,57.0,-100.00,SSE,158,8.0,12.0,49,0.00,,,0.00,341.000000,,2013-06-05 22:53:00,
2013-06-05 19:02:00,78.0,57.0,-100.00,SSE,158,8.0,12.0,49,0.00,,,0.00,341.000000,,2013-06-05 23:02:00,
2013-06-05 19:12:00,78.0,57.0,-100.00,SSE,158,8.0,12.0,49,0.00,,,0.00,341.000000,,2013-06-05 23:12:00,
2013-06-05 19:32:00,76.0,57.0,-100.00,SSE,149,6.0,12.0,51,0.00,,,0.00,245.000000,,2013-06-05 23:32:00,
2013-06-05 19:42:00,76.0,57.0,-100.00,SSE,149,6.0,12.0,51,0.00,,,0.00,245.000000,,2013-06-05 23:42:00,
2013-06-05 19:53:00,76.0,57.0,-100.00,SSE,149,6.0,12.0,51,0.00,,,0.00,245.000000,,2013-06-05 23:53:00,
2013-06-05 20:02:00,76.0,57.0,-100.00,SSE,149,6.0,12.0,51,0.00,,,0.00,245.000000,,2013-06-06 00:02:00,
2013-06-05 20:12:00,76.0,57.0,-100.00,SSE,149,6.0,12.0,51,0.00,,,0.00,245.000000,,2013-06-06 00:12:00,
2013-06-05 20:32:00,74.0,56.0,-100.00,SSE,149,6.0,10.0,54,0.00,,,0.00,76.000000,,2013-06-06 00:32:00,
2013-06-05 20:43:00,74.0,56.0,-100.00,SSE,149,6.0,10.0,54,0.00,,,0.00,76.000000,,2013-06-06 00:43:00,
2013-06-05 20:52:00,74.0,56.0,-100.00,SSE,149,6.0,10.0,54,0.00,,,0.00,76.000000,,2013-06-06 00:52:00,
2013-06-05 21:02:00,74.0,56.0,-100.00,SSE,149,6.0,10.0,54,0.00,,,0.00,76.000000,,2013-06-06 01:02:00,
2013-06-05 21:12:00,74.0,56.0,-100.00,SSE,149,6.0,10.0,54,0.00,,,0.00,76.000000,,2013-06-06 01:12:00,
2013-06-05 21:32:00,71.0,56.0,-100.00,SE,138,4.0,8.0,59,0.00,,,0.00,3.000000,,2013-06-06 01:32:00,
2013-06-05 21:42:00,71.0,56.0,-100.00,SE,138,4.0,8.0,59,0.00,,,0.00,3.000000,,2013-06-06 01:42:00,
2013-06-05 21:53:00,71.0,56.0,-100.00,SE,138,4.0,8.0,59,0.00,,,0.00,3.000000,,2013-06-06 01:53:00,
2013-06-05 22:02:00,71.0,56.0,-100.00,SE,138,4.0,8.0,59,0.00,,,0.00,3.000000,,2013-06-06 02:02:00,
2013-06-05 22:12:00,71.0,56.0,-100.00,SE,138,4.0,8.0,59,0.00,,,0.00,3.000000,,2013-06-06 02:12:00,
2013-06-05 22:32:00,70.0,56.0,-100.00,SSE,147,3.0,7.0,61,0.00,,,0.00,0.000000,,2013-06-06 02:32:00,
2013-06-05 22:42:00,70.0,56.0,-100.00,SSE,147,3.0,7.0,61,0.00,,,0.00,0.000000,,2013-06-06 02:42:00,
2013-06-05 22:52:00,70.0,56.0,-100.00,SSE,147,3.0,7.0,61,0.00,,,0.00,0.000000,,2013-06-06 02:52:00,
2013-06-05 23:02:00,70.0,56.0,-100.00,SSE,147,3.0,7.0,61,0.00,,,0.00,0.000000,,2013-06-06 03:02:00,
2013-06-05 23:12:00,70.0,56.0,-100.00,SSE,147,3.0,7.0,61,0.00,,,0.00,0.000000,,2013-06-06 03:12:00,
2013-06-05 23:13:00,69.0,56.0,-100.00,South,170,5.0,10.0,63,0.00,,,0.00,0.000000,,2013-06-06 03:13:00,
2013-06-05 23:33:00,69.0,56.0,-100.00,South,170,5.0,10.0,63,0.00,,,0.00,0.000000,,2013-06-06 03:33:00,
2013-06-05 23:43:00,69.0,56.0,-100.00,South,170,5.0,10.0,63,0.00,,,0.00,0.000000,,2013-06-06 03:43:00,
2013-06-05 23:53:00,69.0,56.0,-100.00,South,170,5.0,10.0,63,0.00,,,0.00,0.000000,,2013-06-06 03:53:00,